Location: Gleizolles
(44.4833°N, 6.7667°E)
Time: 20:47:33
(UTC+00:00)

Tiros 1 despin weight - Pass Details

Date: 30 June 2024
Orbit: 576 x 620 km, 48.2° (Epoch: 19 July)

Event Time Altitude Azimuth Distance (km) Brightness Sun altitude
Rises 07:35:09 0° 203° (SSW) 2,844 ? 36.8°
Reaches altitude 10° 07:37:51 10° 187° (S) 1,952 ? 37.3°
Maximum altitude 07:41:15 21° 138° (SE) 1,369 ? 37.9°
Drops below altitude 10° 07:44:42 10° 89° (E) 1,978 ? 38.5°
Sets 07:47:26 0° 73° (ENE) 2,891 ? 39.0°
